Location: Most
(50.5133°N, 13.6207°E)
Time: 01:36:18
(UTC+02:00)

ISS - Pass Details

Date: 19 September 2021
Orbit: 417 x 423 km, 51.6° (Epoch: 22 October)

Event Time Altitude Azimuth Distance (km) Brightness Sun altitude
Rises 19:58:41 0° 220° (SW) 2,352 0.4 -8.5°
Reaches altitude 10° 20:00:56 10° 208° (SSW) 1,493 -0.8 -8.8°
Maximum altitude 20:03:52 29° 147° (SSE) 807 -2.7 -9.3°
Enters shadow 20:06:14 14° 91° (E) 1,293 -1.9 -9.6°
